sat.trackr.live / text

‹ back to catalog

STARLINK-30339

NORAD 57882 · 2023-144U

PAYLOAD ACTIVE UNKNOWN

§ Identity

Operator
Country
US
Launch date
2023-09-16
Launch site
AFETR
Launch vehicle
Mass (kg)
RCS (m²)

Purposes: comms

External: N2YO · Heavens-Above · Gunter

§ Orbital elements

Epoch: 2026-09-20T11:34:13.217088Z

Period
94.27 min
Inclination
43.0023°
Eccentricity
0.0001174
Mean motion
15.27580847 rev/d
Perigee alt
482.2 km
Apogee alt
483.9 km
Semi-major
6,861.2 km
B*
6.4419e-5
RAAN
265.5233°
Arg perigee
269.1178°
Mean anomaly
90.9539°
Rev number
16,742

§ Raw data

STARLINK-303391 57882U 23144U   26263.48209742  .00001511  00000+0  64419-4 0  99942 57882  43.0023 265.5233 0001174 269.1178  90.9539 15.27580847167429

JSON: /api/v1/satellites/57882 · /tle

For live sub-satellite position, see the globe view (requires WebGL).

§ Visibility from observer

Set your observer location to see the next 7 days of passes ≥ 10°. The values pass through the URL so the page stays shareable.

No JS? Fill the form by hand. The geolocation button needs JavaScript.